Regional Weather Roundup
Issued by NWS Green Bay, WI

Home | Current Version | Previous Version | Graphics & Text | Print | Product List | Glossary Off
Versions: 1 2 3 4 5 6 7 8 9 10 11 12 13 14 15 16 17 18 19 20 21 22 23 24 25 26 27 28 29 30 31 32 33 34 35 36 37 38 39 40 41 42 43 44 45 46 47 48 49 50

000
ASUS43 KGRB 191900
RWRGRB

NORTH-CENTRAL AND NORTHEAST WISCONSIN REGIONAL WEATHER ROUNDUP
NATIONAL WEATHER SERVICE GREEN BAY WI
100 PM CST THU JAN 19 2017

WIZ005-009-010>012-018-019-192000-
NORTH CENTRAL WISCONSIN

CITY           SKY/WX    TMP DP  RH WIND       PRES   REMARKS
IRONWOOD       SUNNY     45  36  70 S8        29.76F
MANITOWISH WTR NOT AVBL
ARBOR VITAE    NOT AVBL
EAGLE RIVER    NOT AVBL
LAND O LAKES   NOT AVBL
RHINELANDER    SUNNY     38  35  89 W5        29.80F
PHILLIPS       SUNNY     40  34  80 CALM      29.78F
ANTIGO         NOT AVBL
TOMAHAWK       NOT AVBL
MERRILL        CLOUDY    34  34 100 S5          N/A  FOG
$$

WIZ013-073-192000-
NORTHEAST WISCONSIN

CITY           SKY/WX    TMP DP  RH WIND       PRES   REMARKS
IRON MOUNTAIN  MOSUNNY   37  31  78 S7        29.82F
MARINETTE      NOT AVBL
$$

WIZ017-030-035>037-045-192000-
CENTRAL WISCONSIN

CITY           SKY/WX    TMP DP  RH WIND       PRES   REMARKS
MEDFORD        NOT AVBL
WAUSAU         CLOUDY    32  32 100 S7        29.82F FOG
MOSINEE        NOT AVBL
MARSHFIELD     FOG       32  31  96 S7        29.82F VSB 1/4
WISC RAPIDS    CLOUDY    33  33 100 SE8       29.87S FOG
STEVENS POINT  NOT AVBL
WAUPACA        NOT AVBL
SHAWANO        NOT AVBL
CLINTONVILLE   FOG       32  32 100 S8        29.88F VSB 1/4
WAUTOMA        CLOUDY    36  32  85 S3        29.89F FOG
$$

WIZ038-039-048-051-192000-
FOX VALLEY

CITY           SKY/WX    TMP DP  RH WIND       PRES   REMARKS
NWS GREEN BAY  CLOUDY    34  34 100 S8        29.88F FOG
APPLETON       FOG       30  30 100 S6        29.85F VSB 1/8
OSHKOSH        FOG       32  31  96 S8        29.89F VSB 1/4
FOND DU LAC    CLOUDY    33  30  88 S8        29.89F FOG
$$

WIZ022-050-052-192000-
EAST CENTRAL WISCONSIN

CITY           SKY/WX    TMP DP  RH WIND       PRES   REMARKS
EPHRAIM        NOT AVBL
WASHINGTON ISL NOT AVBL
STURGEON BAY   CLOUDY    34  33  96 S9        29.88F FOG
MANITOWOC      NOT AVBL
SHEBOYGAN      FOG       33  32  96 S7        29.90F VSB 1/4
$$

LMZ563-521-522-541>543-192000-
LAKESHORE

STATION/POSITION TIME  TEMP    WIND        PRES    VSBY  WAVE
                       AIR SEA DIR/SP/G                  HT/PER
                 (UTC) (F)     (DEG/KT/KT) (MB)    (MI)  (FT/S)
SHEBOYGAN LKSHOR 1800   33     180/ 12/ 13 1013.8F
KEWAUNEE LKSHORE 1830   34     200/ 10/ 12 1012.7F
NORTHPORT PIER   1840   33     170/  5/ 10 1012.2F
MENOMINEE LKSHOR 1824          300/  9/ 12 1011.7
$$



USA.gov is the U.S. government's official web portal to all federal, state and local government web resources and services.